Back to catalog

BREEZE-M R/B

AliveHEO
NORAD 29254·ROCKET BODY·🇷🇺 Russia

Launched Aug 4, 2006 from Baikonur Cosmodrome

Loading…

Next Passes (next 24 hours)

TLE

FreshSource: Space-Track

Epoch: Sep 13, 2026, 14:11 UTC

1 29254U 06032B   26256.59163069 -.00000130  00000-0  00000-0 0  9998
2 29254  13.4591  26.4767 6086108  42.0091 351.1828  2.06438021151140

Track BREEZE-M R/B in real time with AllMySat

Download on the App Store